Location: Valley View Observatory
(41.0081°N, 76.5874°W)
Time: 21:33:33
(UTC-05:00)

Daily predictions for brighter satellites

Satellite Brightness Start Highest point End
(mag) Time Altitude Azimuth Time Altitude Azimuth Time Altitude Azimuth
Cosmos 44 Rocket 3.5 18:09:19 10° NW 18:14:04 73° WSW 18:18:42 10° SSE
Meteor 1-28 Rocket 3.2 18:11:29 10° NNE 18:15:17 63° E 18:19:03 10° S
BREEZE-M DEB (TANK) 4.1 18:15:28 10° NW 18:17:48 25° NNE 18:22:10 10° ENE
Thor Agena Rocket 4.1 18:12:56 10° N 18:17:56 61° WNW 18:22:53 10° SSW
Tiangong 2 1.0 18:16:03 10° WNW 18:19:08 86° N 18:22:13 10° ESE
COSMO-SKYMED 1 2.6 18:15:08 10° NNE 18:19:31 89° WSW 18:23:52 10° SSW
Cosmos 1709 Rocket 4.5 18:17:04 10° SSE 18:22:43 37° E 18:28:18 10° NNE
Okean 2 Rocket 3.2 18:19:48 10° S 18:24:16 85° W 18:28:44 10° N
FENGYUN 3A 4.4 18:20:20 10° SE 18:25:03 31° ENE 18:29:46 10° N
Cosmos 1190 Rocket 4.0 18:20:40 10° S 18:25:47 66° ESE 18:30:57 10° NNE
BREEZE-M DEB (TANK) 4.4 18:24:03 10° SSW 18:27:33 18° SSE 18:29:41 10° ESE
CZ-3C R/B 4.1 18:23:29 10° SW 18:27:35 12° SSW 18:30:14 10° S
Okean 1 3.7 18:24:36 10° N 18:28:30 43° ENE 18:32:22 10° SSE
Cosmos 1461 2.9 18:26:30 10° NNW 18:30:27 54° NE 18:34:28 10° SE
Cosmos 2292 Rocket 4.4 18:27:06 10° SSE 18:31:46 48° E 18:38:02 10° NNE
COSMOS 2428 4.2 18:28:12 10° N 18:31:48 17° NE 18:34:53 12° E
deb Kosmos-1763 4.1 18:28:40 10° SSW 18:32:28 80° ESE 18:36:16 10° NNE
CENTAUR R/B 3.9 18:25:53 10° NW 18:33:39 58° WSW 18:41:47 10° SSE
Cosmos 44 3.3 18:29:45 10° NW 18:34:10 71° WSW 18:38:26 10° SSE
Meteor 1-25 Rocket 4.2 18:29:03 10° S 18:34:38 85° E 18:40:21 10° N
Spot 2 Rocket 4.3 18:32:03 10° SE 18:36:24 30° ENE 18:40:46 10° N
H-2A R/B 3.9 18:36:09 10° ESE 18:38:58 21° ENE 18:41:49 10° NNE
Cosmos 1745 Rocket 4.3 18:34:16 10° SSW 18:40:35 73° W 18:46:53 10° N
Cosmos 2151 Rocket 3.5 18:38:27 10° S 18:42:55 71° E 18:47:27 10° NNE
Cosmos 1812 3.1 18:42:07 10° NNW 18:45:58 70° W 18:49:47 10° S
Helios 1A 4.4 18:44:51 16° E 18:46:12 18° ENE 18:49:03 10° NNE
NOAA 12 4.2 18:43:16 10° SSE 18:48:35 86° WSW 18:53:57 10° NNW
Meteor 1-11 Rocket 4.2 18:43:40 10° SSE 18:49:00 40° E 18:54:27 10° NNE
Okean 1 Rocket 3.9 18:45:54 10° SSE 18:49:47 30° E 18:53:43 10° NNE
METEOR-M 4.2 18:46:35 10° SSE 18:51:56 83° WSW 18:57:19 10° NNW
Cosmos 1954 Rocket 4.1 18:48:32 10° S 18:53:34 55° ESE 18:58:40 10° NNE
GEOS 3 Rocket 3.6 18:48:47 10° NE 18:54:00 64° ESE 18:59:13 10° SSW
Cosmos 2219 4.3 18:51:46 10° SSE 18:56:10 23° E 18:58:55 16° ENE
HJ-1C 3.5 18:53:32 10° SSE 18:56:49 52° ENE 19:00:07 10° N
Cosmos 2360 Rocket 2.4 18:53:35 10° NNW 18:59:07 51° ENE 19:04:37 10° SE
Cosmos 2219 Rocket 3.7 18:58:17 10° N 19:01:42 16° NE 19:02:23 16° ENE
Helios 1B rocket 3.6 19:07:49 24° ESE 19:07:49 24° ESE 19:10:24 10° SSE
Okean 1-7 Rocket 4.2 19:04:00 10° N 19:08:12 35° ENE 19:10:37 21° SE
Cosmos 1602 3.6 19:07:46 10° S 19:11:36 75° E 19:15:31 10° N
Cosmos 1633 2.4 19:08:25 10° S 19:12:06 83° E 19:15:48 10° N
FREGAT/IRIS 4.3 19:14:10 10° SSW 19:17:03 37° W 19:19:57 10° NNW
Cosmos 1025 Rocket 3.7 19:14:42 10° N 19:18:31 33° ENE 19:18:31 33° ENE
ALOS 2.3 19:14:56 10° S 19:19:36 81° WSW 19:24:18 10° NNW
Cosmos 1833 4.1 19:15:45 10° SSW 19:21:28 89° ESE 19:27:10 10° NNE
Spot 1 4.2 19:21:16 39° ESE 19:22:02 45° ENE 19:25:57 10° N
Cosmos 2333 Rocket 3.6 19:23:04 10° N 19:27:00 21° NE 19:27:00 21° NE
Cosmos 1818 4.2 19:23:43 10° SW 19:29:02 55° NW 19:34:26 10° NNE
SL-16 R/B 3.9 19:27:46 10° NW 19:32:48 33° WSW 19:37:48 10° SSW
Intercosmos 24 4.3 19:29:15 10° SSE 19:33:09 52° E 19:38:32 10° NNE
Cosmos 1741 Rocket 3.9 19:28:46 10° S 19:33:52 58° ESE 19:37:55 16° NNE
SL-08 ROCKET BODY 4.4 19:28:34 10° S 19:34:39 67° E 19:40:48 10° NNE
Resurs 01 Rocket 2.0 19:34:43 10° S 19:39:05 63° W 19:43:28 10° NNW
Cosmos 1340 4.2 19:37:59 10° NNW 19:41:30 37° W 19:45:00 10° SSW
Cosmos 1238 Rocket 3.8 19:40:08 10° NNW 19:42:54 33° W 19:45:29 11° SSW
Gbstr 26 Del rocket 2.8 19:40:41 10° SW 19:43:57 62° SSW 19:43:57 62° SSW
DELTA 2 R/B (1) 3.9 19:41:40 10° W 19:47:10 56° SSW 19:48:38 43° SSE
Cosmos 1570 Rocket 3.8 19:42:07 10° NNW 19:47:22 76° ENE 19:48:43 50° SE
Cosmos 2327 Rocket 4.3 19:41:35 10° S 19:47:43 72° E 19:54:01 10° NNE
Meteor 1-5 Rocket 4.2 19:43:22 10° S 19:49:17 69° E 19:55:11 10° NNE
Tiangong 2 3.4 19:52:51 10° W 19:54:34 21° SW 19:54:34 21° SW
Genesis I 4.3 19:54:23 10° NNW 19:56:54 37° NNW 19:56:54 37° NNW
Cosmos 1536 3.5 19:55:01 10° SSW 19:58:54 52° W 20:02:49 10° N
Cosmos 2322 4.3 19:58:05 10° NNW 20:03:39 55° WSW 20:07:31 20° S
CZ-2D R/B 4.3 20:03:05 39° SW 20:03:45 44° W 20:07:25 10° NNW
Cosmos 2074 Rocket 4.1 20:00:42 10° SSW 20:06:56 76° W 20:13:15 10° N
Cosmos 2184 Rocket 4.1 20:01:19 10° S 20:07:39 79° W 20:13:57 10° N
Meteor 1-23 Rocket 4.5 20:03:24 10° NNW 20:09:12 70° W 20:12:58 22° S
Cosmos 2208 Rocket 4.2 20:06:11 10° NNW 20:11:38 73° WSW 20:12:30 60° SSW
COSMOS 2428 2.6 20:11:05 10° NNW 20:16:48 82° WSW 20:16:58 80° SW
Cosmos 2333 4.2 20:14:35 10° NNW 20:20:01 81° NW 20:20:01 81° NW
Helios 1A 4.3 20:21:29 38° W 20:21:29 38° W 20:25:22 10° NNW
Cosmos 2237 Rocket 3.6 20:21:04 10° N 20:23:53 26° N 20:23:53 26° N
Nadezhda 3 Rocket 4.4 20:22:44 10° N 20:27:16 51° N 20:27:16 51° N
Envisat 4.0 20:33:05 41° NNW 20:33:05 41° NNW 20:36:25 10° NNW
USA 229 DEB 3.6 20:25:03 10° NW 20:32:14 85° NE 20:32:15 85° ENE
USA 229 3.6 20:25:09 10° NW 20:32:20 84° NE 20:32:20 84° NE
Cosmos 2285 Rocket 4.0 20:28:07 10° NNW 20:34:34 76° WSW 20:34:37 75° WSW
Cosmos 2219 3.9 20:34:21 10° SW 20:39:55 50° WNW 20:41:02 44° NNW
Cosmos 2360 Rocket 4.3 20:38:27 10° NW 20:42:42 22° W 20:46:56 10° SSW
Cosmos 2219 Rocket 3.3 20:40:46 10° NNW 20:44:09 38° NNW 20:44:09 38° NNW
SL-16 R/B 4.5 20:53:15 10° N 20:54:14 14° N 20:54:14 14° N
NOSS 3-1 (C) 4.5 20:58:13 10° NNW 21:03:46 51° N 21:03:46 51° N
Cosmos 2333 Rocket 3.9 21:06:24 10° NNW 21:09:02 28° NW 21:09:02 28° NW
